Weather History for KAKO - February, 2013

Change the Weather History Date:

Saturday, February 23, 2013

  Actual Average Record
Temperature  
Mean Temperature 30 °F 33 °F  
Max Temperature 43 °F 46 °F 70 °F (1958)
Min Temperature 16 °F 21 °F -13 °F (1960)
Degree Days  
Heating Degree Days 35    
Month to date heating degree days 775  
Cooling Degree Days 0    
Month to date cooling degree days 0  
Moisture  
Dew Point 15 °F    
Average Humidity 57    
Maximum Humidity 81    
Minimum Humidity 33    
Precipitation  
Precipitation 0.00 in 0.02 in 0.25 in (1992)
Month to date precipitation 0.05 0.34  
Year to date precipitation 0.08 0.64  
Sea Level Pressure  
Sea Level Pressure 29.80 in    
Wind  
Wind Speed 11 mph (South)    
Max Wind Speed 15 mph    
Max Gust Speed 18 mph    
Visibility 10 miles    
Events      
T = Trace of Precipitation, MM = Missing Value Source: NWS Daily Summary

Daily Weather History Graph

Daily Weather History Graph

Search for Another Location

Airport or City:

Trip Planner

Search our weather history database for the weather conditions in past years. The results will help you decide how hot, cold, wet, or windy it might be!

Date:

Astronomy

Feb. 23, 2013 Rise Set
Actual Time 6:34 AM MST 5:38 PM MST
Civil Twilight 6:07 AM MST 6:05 PM MST
Nautical Twilight 5:35 AM MST 6:37 PM MST
Astronomical Twilight 5:04 AM MST 7:08 PM MST
Moon 3:50 PM MST (2/23) 4:58 AM MST (2/23)
Length of Visible Light 11h 58m
Length of Day
11h 03m
Waxing Gibbous, 95% of the Moon is Illuminated
Feb 23
Waxing Gibbous
Feb 25
Full
Mar 4
Last Quarter
Mar 11
New
Mar 19
First Quarter

Hourly Weather History & Observations

Time (MST) Temp. Windchill Dew Point Humidity Pressure Visibility Wind Dir Wind Speed Gust Speed Precip Events Conditions
12:53 AM 21.9 °F 9.8 °F 14.0 °F 72% 29.95 in 10.0 mi SSW 12.7 mph - N/A   Clear
1:53 AM 19.0 °F 6.8 °F 12.9 °F 77% 29.93 in 10.0 mi SW 11.5 mph - N/A   Clear
2:53 AM 18.0 °F 4.8 °F 12.0 °F 78% 29.88 in 10.0 mi SW 12.7 mph - N/A   Clear
3:53 AM 18.0 °F 5.4 °F 10.9 °F 74% 29.87 in 10.0 mi SW 11.5 mph - N/A   Clear
5:53 AM 17.1 °F 3.0 °F 8.1 °F 68% 29.88 in 10.0 mi SW 13.8 mph - N/A   Clear
6:53 AM 19.0 °F 5.6 °F 7.0 °F 59% 29.87 in 10.0 mi SW 13.8 mph - N/A   Clear
7:53 AM 21.9 °F 11.0 °F 9.0 °F 58% 29.86 in 10.0 mi SW 10.4 mph - N/A   Clear
8:53 AM 27.0 °F 17.3 °F 12.0 °F 53% 29.86 in 10.0 mi WSW 10.4 mph - N/A   Clear
9:53 AM 28.9 °F 19.2 °F 12.9 °F 51% 29.84 in 10.0 mi SW 11.5 mph - N/A   Clear
10:53 AM 33.1 °F 25.5 °F 15.1 °F 48% 29.81 in 10.0 mi SW 9.2 mph - N/A   Clear
11:53 AM 36.0 °F 28.5 °F 12.9 °F 39% 29.78 in 10.0 mi SW 10.4 mph - N/A   Clear
12:53 PM 39.9 °F 34.5 °F 16.0 °F 38% 29.73 in 10.0 mi South 8.1 mph - N/A   Clear
1:53 PM 42.1 °F 36.1 °F 15.1 °F 34% 29.70 in 10.0 mi South 10.4 mph - N/A   Clear
2:53 PM 42.1 °F 34.9 °F 16.0 °F 35% 29.70 in 10.0 mi SSE 13.8 mph - N/A   Clear
3:53 PM 41.0 °F 33.9 °F 15.1 °F 35% 29.69 in 10.0 mi SE 12.7 mph - N/A   Clear
4:53 PM 39.9 °F 33.4 °F 17.1 °F 40% 29.71 in 10.0 mi SSE 10.4 mph - N/A   Clear
5:53 PM 32.0 °F 25.6 °F 23.0 °F 69% 29.74 in 10.0 mi SE 6.9 mph - N/A   Clear
6:53 PM 30.0 °F 22.4 °F 21.9 °F 72% 29.75 in 10.0 mi SE 8.1 mph - N/A   Clear
7:53 PM 25.0 °F 18.1 °F 19.9 °F 81% 29.76 in 10.0 mi ESE 5.8 mph - N/A   Clear
11:53 PM 30.9 °F 27.5 °F 21.0 °F 67% 29.73 in 10.0 mi ENE 3.5 mph - N/A   Overcast